• In Italy
  • List of Countries
  • For 7 days
  • Water Temperature
  • Satellite Maps
  • Weather Map
  • Weather Widgets
  • user-avatar
    Login

    Hourly Weather Bobrinec

    Today, 22 July, Sunday

    Time Temperature Precipitation Wind Pressure Humidity
    00:00 +21°C° 0 mm 3 mps 742 mmHg 85%
    01:00 +20°C° 0 mm 3 mps 742 mmHg 87%
    02:00 +20°C° 0 mm 3 mps 742 mmHg 89%
    03:00 +20°C° 0 mm 3 mps 742 mmHg 89%
    04:00 +19°C° 0 mm 3 mps 742 mmHg 90%
    05:00 +19°C° 0 mm 3 mps 742 mmHg 90%
    06:00 +21°C° 0 mm 3 mps 742 mmHg 83%
    07:00 +24°C° 0 mm 3 mps 742 mmHg 76%
    08:00 +25°C° 0 mm 3 mps 742 mmHg 69%
    09:00 +27°C° 0 mm 4 mps 742 mmHg 63%
    10:00 +28°C° 0 mm 4 mps 742 mmHg 57%
    11:00 +29°C° 0 mm 4 mps 742 mmHg 51%
    12:00 +30°C° 0 mm 5 mps 742 mmHg 49%
    13:00 +30°C° 0 mm 5 mps 741 mmHg 47%
    14:00 +30°C° 0 mm 5 mps 741 mmHg 45%
    15:00 +30°C° 0 mm 5 mps 741 mmHg 47%
    16:00 +30°C° 0 mm 5 mps 741 mmHg 48%
    17:00 +30°C° 0 mm 5 mps 741 mmHg 49%
    18:00 +28°C° 0.2 mm 4 mps 741 mmHg 56%
    19:00 +26°C° 0.2 mm 3 mps 741 mmHg 63%
    20:00 +24°C° 0.2 mm 3 mps 741 mmHg 70%
    21:00 +24°C° 0 mm 2 mps 741 mmHg 73%
    22:00 +23°C° 0 mm 2 mps 741 mmHg 76%
    23:00 +22°C° 0 mm 1 mps 741 mmHg 79%

    Tomorrow, 23 July, Monday

    Time Temperature Precipitation Wind Pressure Humidity
    00:00 +22°C° 0 mm 1 mps 741 mmHg 80%
    01:00 +21°C° 0 mm 1 mps 741 mmHg 82%
    02:00 +21°C° 0 mm 1 mps 741 mmHg 83%
    03:00 +21°C° 0 mm 1 mps 741 mmHg 84%
    04:00 +21°C° 0 mm 1 mps 740 mmHg 84%
    05:00 +21°C° 0 mm 1 mps 740 mmHg 85%
    06:00 +21°C° 0 mm 2 mps 740 mmHg 79%
    07:00 +24°C° 0 mm 2 mps 740 mmHg 72%
    08:00 +26°C° 0 mm 2 mps 740 mmHg 66%
    09:00 +27°C° 0 mm 3 mps 740 mmHg 60%
    10:00 +28°C° 0 mm 3 mps 740 mmHg 55%
    11:00 +29°C° 0 mm 3 mps 740 mmHg 49%
    12:00 +30°C° 0 mm 3 mps 740 mmHg 47%
    13:00 +30°C° 0 mm 3 mps 739 mmHg 45%
    14:00 +31°C° 0 mm 3 mps 739 mmHg 42%
    15:00 +30°C° 0.1 mm 3 mps 739 mmHg 45%
    16:00 +30°C° 0.1 mm 3 mps 739 mmHg 48%
    17:00 +29°C° 0.1 mm 3 mps 739 mmHg 51%
    18:00 +28°C° 0 mm 2 mps 739 mmHg 57%
    19:00 +26°C° 0 mm 2 mps 739 mmHg 63%
    20:00 +25°C° 0 mm 2 mps 739 mmHg 69%
    21:00 +24°C° 0 mm 1 mps 739 mmHg 71%
    22:00 +24°C° 0 mm 1 mps 739 mmHg 73%
    23:00 +21°C° 0 mm 0 mps 739 mmHg 75%

    Day after tomorrow, 24 July, Tuesday

    Time Temperature Precipitation Wind Pressure Humidity
    00:00 +23°C° 0.1 mm 1 mps 739 mmHg 76%
    01:00 +22°C° 0.1 mm 1 mps 739 mmHg 76%
    02:00 +22°C° 0.1 mm 1 mps 739 mmHg 77%
    03:00 +22°C° 0.4 mm 1 mps 739 mmHg 78%
    04:00 +22°C° 0.4 mm 1 mps 739 mmHg 79%
    05:00 +21°C° 0.4 mm 2 mps 739 mmHg 80%
    06:00 +23°C° 0.5 mm 1 mps 740 mmHg 76%
    07:00 +24°C° 0.5 mm 1 mps 740 mmHg 72%
    08:00 +26°C° 0.5 mm 1 mps 740 mmHg 67%
    09:00 +27°C° 0.2 mm 2 mps 740 mmHg 60%
    10:00 +29°C° 0.2 mm 2 mps 740 mmHg 52%
    11:00 +30°C° 0.2 mm 3 mps 740 mmHg 45%
    12:00 +31°C° 0 mm 2 mps 740 mmHg 44%
    13:00 +31°C° 0 mm 2 mps 740 mmHg 44%
    14:00 +31°C° 0 mm 2 mps 740 mmHg 43%
    15:00 +31°C° 0 mm 2 mps 740 mmHg 43%
    16:00 +31°C° 0 mm 1 mps 740 mmHg 44%
    17:00 +31°C° 0 mm 1 mps 740 mmHg 45%
    18:00 +30°C° 0.1 mm 1 mps 740 mmHg 48%
    19:00 +28°C° 0.1 mm 2 mps 740 mmHg 51%
    20:00 +27°C° 0.1 mm 2 mps 740 mmHg 54%
    21:00 +26°C° 0.5 mm 2 mps 740 mmHg 58%
    22:00 +25°C° 0.5 mm 2 mps 741 mmHg 62%
    23:00 +24°C° 0.5 mm 3 mps 741 mmHg 67%

    25 July, Wednesday

    Time Temperature Precipitation Wind Pressure Humidity
    00:00 +24°C° 0.4 mm 2 mps 741 mmHg 69%
    01:00 +23°C° 0.4 mm 2 mps 741 mmHg 71%
    02:00 +23°C° 0.4 mm 2 mps 741 mmHg 74%
    03:00 +23°C° 0.1 mm 1 mps 741 mmHg 74%
    04:00 +23°C° 0.1 mm 1 mps 741 mmHg 74%
    05:00 +23°C° 0.1 mm 1 mps 741 mmHg 75%
    06:00 +24°C° 0 mm 2 mps 741 mmHg 70%
    07:00 +26°C° 0 mm 2 mps 742 mmHg 65%
    08:00 +28°C° 0 mm 3 mps 742 mmHg 60%
    09:00 +29°C° 0 mm 3 mps 742 mmHg 55%
    10:00 +30°C° 0 mm 3 mps 742 mmHg 49%
    11:00 +33°C° 0 mm 3 mps 742 mmHg 44%
    12:00 +33°C° 0 mm 3 mps 742 mmHg 43%
    13:00 +33°C° 0 mm 3 mps 742 mmHg 41%
    14:00 +34°C° 0 mm 3 mps 742 mmHg 40%
    15:00 +34°C° 0 mm 3 mps 742 mmHg 41%
    16:00 +33°C° 0 mm 3 mps 742 mmHg 42%
    17:00 +32°C° 0 mm 2 mps 742 mmHg 42%
    18:00 +31°C° 0 mm 3 mps 742 mmHg 47%
    19:00 +29°C° 0 mm 3 mps 742 mmHg 52%
    20:00 +28°C° 0 mm 3 mps 742 mmHg 57%
    21:00 +27°C° 0.8 mm 3 mps 742 mmHg 64%
    22:00 +25°C° 0.8 mm 3 mps 742 mmHg 71%
    23:00 +24°C° 0.8 mm 3 mps 742 mmHg 78%

    26 July, Thursday

    Time Temperature Precipitation Wind Pressure Humidity
    00:00 +24°C° 0.1 mm 2 mps 742 mmHg 80%
    01:00 +24°C° 0.1 mm 2 mps 742 mmHg 82%
    02:00 +23°C° 0.1 mm 2 mps 742 mmHg 84%
    03:00 +23°C° 0 mm 2 mps 743 mmHg 84%
    04:00 +23°C° 0 mm 2 mps 743 mmHg 85%
    05:00 +22°C° 0 mm 3 mps 743 mmHg 85%
    06:00 +25°C° 0 mm 3 mps 743 mmHg 80%
    07:00 +26°C° 0 mm 3 mps 743 mmHg 74%
    08:00 +28°C° 0 mm 3 mps 744 mmHg 69%
    09:00 +29°C° 0.1 mm 3 mps 744 mmHg 62%
    10:00 +30°C° 0.1 mm 3 mps 743 mmHg 55%
    11:00 +33°C° 0.1 mm 3 mps 743 mmHg 48%
    12:00 +33°C° 0 mm 3 mps 743 mmHg 47%
    13:00 +34°C° 0 mm 3 mps 743 mmHg 45%
    14:00 +34°C° 0 mm 3 mps 743 mmHg 43%
    15:00 +34°C° 0 mm 3 mps 744 mmHg 45%
    16:00 +33°C° 0 mm 3 mps 744 mmHg 48%
    17:00 +33°C° 0 mm 3 mps 744 mmHg 50%
    18:00 +30°C° 0 mm 3 mps 744 mmHg 54%
    19:00 +29°C° 0 mm 3 mps 744 mmHg 59%
    20:00 +28°C° 0 mm 3 mps 744 mmHg 63%
    21:00 +27°C° 0.2 mm 3 mps 744 mmHg 66%
    22:00 +26°C° 0.2 mm 3 mps 744 mmHg 69%
    23:00 +25°C° 0.2 mm 3 mps 744 mmHg 72%

    27 July, Friday

    Time Temperature Precipitation Wind Pressure Humidity
    00:00 +25°C° 0.2 mm 3 mps 744 mmHg 73%
    01:00 +24°C° 0.2 mm 3 mps 744 mmHg 75%
    02:00 +24°C° 0.2 mm 3 mps 744 mmHg 76%
    03:00 +22°C° 0.1 mm 3 mps 744 mmHg 77%
    04:00 +22°C° 0.1 mm 4 mps 744 mmHg 78%
    05:00 +22°C° 0.1 mm 4 mps 744 mmHg 80%
    06:00 +23°C° 0.1 mm 4 mps 744 mmHg 76%
    07:00 +26°C° 0.1 mm 4 mps 744 mmHg 72%
    08:00 +27°C° 0.1 mm 4 mps 744 mmHg 67%
    09:00 +28°C° 0.1 mm 5 mps 744 mmHg 63%
    10:00 +29°C° 0.1 mm 5 mps 744 mmHg 59%
    11:00 +32°C° 0.1 mm 6 mps 745 mmHg 54%
    12:00 +32°C° 0 mm 6 mps 745 mmHg 52%
    13:00 +33°C° 0 mm 6 mps 744 mmHg 50%
    14:00 +33°C° 0 mm 6 mps 744 mmHg 48%
    15:00 +33°C° 0 mm 6 mps 744 mmHg 48%
    16:00 +33°C° 0 mm 6 mps 744 mmHg 47%
    17:00 +33°C° 0 mm 5 mps 744 mmHg 47%
    18:00 +30°C° 0.1 mm 5 mps 745 mmHg 51%
    19:00 +29°C° 0.1 mm 4 mps 745 mmHg 54%
    20:00 +27°C° 0.1 mm 4 mps 745 mmHg 58%
    21:00 +27°C° 0 mm 5 mps 745 mmHg 57%
    22:00 +26°C° 0 mm 6 mps 745 mmHg 55%
    23:00 +26°C° 0 mm 6 mps 745 mmHg 54%
    Show more